Change the Weather History Date:

Friday, September 16, 2011

  Actual Average Record
Temperature  
Mean Temperature 60 °F -  
Max Temperature 75 °F 72 °F 96 °F (2000)
Min Temperature 46 °F 45 °F 39 °F (2004)
Degree Days  
Heating Degree Days 4    
Growing Degree Days 10 (Base 50)    
Moisture  
Dew Point 47 °F    
Average Humidity 68    
Maximum Humidity 100    
Minimum Humidity 31    
Precipitation  
Precipitation 0.00 in - - ()
Sea Level Pressure  
Sea Level Pressure 30.00 in    
Wind  
Wind Speed 3 mph (South)    
Max Wind Speed 10 mph    
Max Gust Speed -    
Visibility 8 miles    
Events      
Averages and records for this station are not official NWS values.
T = Trace of Precipitation, MM = Missing Value Source: NWS Daily Summary

Daily Weather History Graph

Daily Weather History Graph

Search for Another Location

Airport or City:

Trip Planner

Search our weather history database for the weather conditions in past years. The results will help you decide how hot, cold, wet, or windy it might be!

Date:

Astronomy

Sep. 16, 2011 Rise Set
Actual Time 6:41 AM MDT 7:07 PM MDT
Civil Twilight 6:14 AM MDT 7:34 PM MDT
Nautical Twilight 5:42 AM MDT 8:07 PM MDT
Astronomical Twilight 5:08 AM MDT 8:39 PM MDT
Moon 8:58 PM MDT (9/16) 10:50 AM MDT (9/16)
Length of Visible Light 13h 20m
Length of Day
12h 26m
Waning Gibbous, 84% of the Moon is Illuminated
Sep 16
Waning Gibbous
Sep 20
Last Quarter
Sep 27
New
Oct 3
First Quarter
Oct 11
Full

Hourly Weather History & Observations

Time (MDT) Temp. Windchill Dew Point Humidity Pressure Visibility Wind Dir Wind Speed Gust Speed Precip Events Conditions
12:15 AM 51.8 °F - 50.0 °F 94% 30.04 in 6.0 mi Calm Calm - N/A   Overcast
12:35 AM 51.8 °F - 50.0 °F 94% 30.04 in 7.0 mi NNE 3.5 mph - N/A   Overcast
12:55 AM 51.8 °F - 50.0 °F 94% 30.03 in 7.0 mi NNE 5.8 mph - N/A   Overcast
1:15 AM 51.8 °F - 48.2 °F 88% 30.03 in 6.0 mi Calm Calm - N/A   Overcast
1:35 AM 51.8 °F - 48.2 °F 88% 30.03 in 5.0 mi Calm Calm - N/A   Overcast
1:55 AM 51.8 °F - 48.2 °F 88% 30.03 in 5.0 mi Calm Calm - N/A   Overcast
2:35 AM 51.8 °F - 48.2 °F 88% 30.03 in 7.0 mi NNW 4.6 mph - N/A   Overcast
3:15 AM 51.8 °F - 48.2 °F 88% 30.03 in 7.0 mi Calm Calm - N/A   Overcast
3:35 AM 51.8 °F - 48.2 °F 88% 30.02 in 5.0 mi North 4.6 mph - N/A   Overcast
3:55 AM 50.0 °F - 48.2 °F 94% 30.02 in 6.0 mi NNW 3.5 mph - N/A   Overcast
4:35 AM 50.0 °F - 46.4 °F 87% 30.02 in 5.0 mi NNW 4.6 mph - N/A   Overcast
4:55 AM 50.0 °F - 48.2 °F 94% 30.03 in 5.0 mi Calm Calm - N/A   Overcast
5:15 AM 50.0 °F - 48.2 °F 94% 30.03 in 5.0 mi ESE 4.6 mph - N/A   Overcast
5:35 AM 50.0 °F - 48.2 °F 94% 30.03 in 5.0 mi South 3.5 mph - N/A   Overcast
5:55 AM 48.2 °F - 46.4 °F 93% 30.03 in 5.0 mi Calm Calm - N/A   Overcast
6:35 AM 48.2 °F - 46.4 °F 93% 30.03 in 4.0 mi SSW 3.5 mph - N/A   Overcast
6:55 AM 48.2 °F - 46.4 °F 93% 30.03 in 2.0 mi SW 4.6 mph - N/A   Overcast
7:15 AM 48.2 °F - 46.4 °F 93% 30.03 in 0.5 mi South 3.5 mph - N/A   Overcast
7:35 AM 48.2 °F - 46.4 °F 93% 30.04 in 0.8 mi Calm Calm - N/A   Overcast
7:55 AM 48.2 °F - 46.4 °F 93% 30.04 in 2.0 mi Calm Calm - N/A   Overcast
8:35 AM 48.2 °F - 46.4 °F 93% 30.05 in 0.5 mi South 4.6 mph - N/A   Overcast
8:55 AM 48.2 °F - 46.4 °F 93% 30.05 in 0.8 mi Calm Calm - N/A   Overcast
9:15 AM 46.4 °F 45.2 °F 46.4 °F 100% 30.05 in 1.8 mi SSW 3.5 mph - N/A   Overcast
9:35 AM 48.2 °F - 46.4 °F 93% 30.05 in 5.0 mi SE 5.8 mph - N/A   Overcast
9:55 AM 48.2 °F - 46.4 °F 93% 30.05 in 10.0 mi SSW 4.6 mph - N/A   Overcast
10:15 AM 51.8 °F - 48.2 °F 88% 30.05 in 10.0 mi SSW 3.5 mph - N/A   Mostly Cloudy
10:35 AM 53.6 °F - 50.0 °F 88% 30.04 in 10.0 mi South 4.6 mph - N/A   Partly Cloudy
11:15 AM 57.2 °F - 51.8 °F 82% 30.04 in 10.0 mi Calm Calm - N/A   Clear
11:35 AM 60.8 °F - 51.8 °F 72% 30.03 in 10.0 mi SE 5.8 mph - N/A   Clear
11:55 AM 62.6 °F - 51.8 °F 68% 30.02 in 10.0 mi SSE 4.6 mph - N/A   Clear
12:35 PM 66.2 °F - 51.8 °F 60% 30.01 in 10.0 mi SE 4.6 mph - N/A   Clear
12:55 PM 66.2 °F - 48.2 °F 52% 30.01 in 10.0 mi SSE 5.8 mph - N/A   Clear
1:15 PM 69.8 °F - 51.8 °F 53% 30.00 in 10.0 mi SSE 6.9 mph - N/A   Clear
1:35 PM 71.6 °F - 48.2 °F 43% 29.99 in 10.0 mi East 6.9 mph - N/A   Mostly Cloudy
1:55 PM 73.4 °F - 48.2 °F 41% 29.99 in 10.0 mi SSE 4.6 mph - N/A   Scattered Clouds
2:15 PM 73.4 °F - 44.6 °F 36% 29.98 in 10.0 mi South 3.5 mph - N/A   Partly Cloudy
2:35 PM 71.6 °F - 44.6 °F 38% 29.97 in 10.0 mi SSE 6.9 mph - N/A   Scattered Clouds
2:55 PM 71.6 °F - 46.4 °F 41% 29.97 in 10.0 mi SSW 4.6 mph - N/A   Scattered Clouds
3:15 PM 73.4 °F - 46.4 °F 38% 29.96 in 10.0 mi WSW 5.8 mph - N/A   Scattered Clouds
3:35 PM 73.4 °F - 44.6 °F 36% 29.95 in 10.0 mi West 5.8 mph - N/A   Partly Cloudy
3:55 PM 73.4 °F - 42.8 °F 33% 29.95 in 10.0 mi SE 5.8 mph - N/A   Partly Cloudy
4:15 PM 75.2 °F - 42.8 °F 31% 29.94 in 10.0 mi South 10.4 mph - N/A   Clear
4:35 PM 75.2 °F - 42.8 °F 31% 29.93 in 10.0 mi SSW 9.2 mph - N/A   Clear
4:55 PM 75.2 °F - 42.8 °F 31% 29.93 in 10.0 mi South 8.1 mph - N/A   Clear
5:15 PM 73.4 °F - 41.0 °F 31% 29.94 in 10.0 mi SSE 8.1 mph - N/A   Clear
5:35 PM 73.4 °F - 41.0 °F 31% 29.94 in 10.0 mi SSE 8.1 mph - N/A   Clear
5:55 PM 73.4 °F - 42.8 °F 33% 29.94 in 10.0 mi South 9.2 mph - N/A   Clear
6:35 PM 69.8 °F - 44.6 °F 40% 29.94 in 10.0 mi South 5.8 mph - N/A   Clear
6:55 PM 66.2 °F - 46.4 °F 49% 29.95 in 10.0 mi South 5.8 mph - N/A   Clear
7:35 PM 64.4 °F - 44.6 °F 49% 29.94 in 10.0 mi South 6.9 mph - N/A   Clear
7:55 PM 64.4 °F - 48.2 °F 56% 29.95 in 10.0 mi South 5.8 mph - N/A   Clear
8:35 PM 64.4 °F - 46.4 °F 52% 29.96 in 10.0 mi SSE 4.6 mph - N/A   Clear
8:55 PM 62.6 °F - 46.4 °F 55% 29.97 in 10.0 mi South 3.5 mph - N/A   Mostly Cloudy
9:15 PM 62.6 °F - 46.4 °F 55% 29.97 in 10.0 mi South 4.6 mph - N/A   Mostly Cloudy
9:35 PM 60.8 °F - 46.4 °F 59% 29.97 in 10.0 mi South 4.6 mph - N/A   Partly Cloudy
9:55 PM 60.8 °F - 46.4 °F 59% 29.98 in 10.0 mi South 4.6 mph - N/A   Clear
10:15 PM 60.8 °F - 46.4 °F 59% 29.98 in 10.0 mi Calm Calm - N/A   Partly Cloudy
10:35 PM 60.8 °F - 44.6 °F 55% 29.97 in 10.0 mi Calm Calm - N/A   Partly Cloudy
10:55 PM 55.4 °F - 48.2 °F 77% 29.97 in 10.0 mi NNW 5.8 mph - N/A   Clear
11:15 PM 55.4 °F - 48.2 °F 77% 29.97 in 10.0 mi North 6.9 mph - N/A   Clear
11:35 PM 55.4 °F - 46.4 °F 72% 29.98 in 10.0 mi North 4.6 mph - N/A   Clear
11:55 PM 57.2 °F - 46.4 °F 67% 29.97 in 10.0 mi North 6.9 mph - N/A   Clear